When you browse on this site, cookies collect data to enhance your experience and personalize the content and advertising you see.
Visit our Privacy Policy to learn more. By continuing to use the site, you agree to this use of cookies and data.
  • In Hungary
  • List of Countries
  • For 7 days
  • Water Temperature
  • Satellite Maps
  • Weather Map
  • News
  • Weather Widgets
  • user-avatar
    Login

    Hourly Weather Kazincbarcika

    Today, 26 June, Wednesday

    Time Temperature Precipitation Wind Pressure Humidity
    00:00 +22°C° 0 mm 1 mps 752 mmHg 83%
    01:00 +20°C° 0 mm 0 mps 752 mmHg 84%
    02:00 +22°C° 0 mm 1 mps 752 mmHg 85%
    03:00 +21°C° 0 mm 1 mps 751 mmHg 86%
    04:00 +21°C° 0 mm 1 mps 751 mmHg 87%
    05:00 +23°C° 0 mm 1 mps 751 mmHg 81%
    06:00 +23°C° 0 mm 0 mps 751 mmHg 76%
    07:00 +25°C° 0 mm 0 mps 752 mmHg 70%
    08:00 +29°C° 0 mm 1 mps 752 mmHg 65%
    09:00 +30°C° 0 mm 1 mps 752 mmHg 60%
    10:00 +32°C° 0 mm 1 mps 752 mmHg 55%
    11:00 +32°C° 0 mm 2 mps 752 mmHg 53%
    12:00 +34°C° 0 mm 2 mps 752 mmHg 51%
    13:00 +34°C° 0 mm 2 mps 751 mmHg 49%
    14:00 +34°C° 0 mm 2 mps 751 mmHg 51%
    15:00 +34°C° 0 mm 2 mps 750 mmHg 53%
    16:00 +34°C° 0 mm 3 mps 750 mmHg 55%
    17:00 +31°C° 0 mm 2 mps 750 mmHg 62%
    18:00 +29°C° 0 mm 2 mps 750 mmHg 69%
    19:00 +28°C° 0 mm 2 mps 749 mmHg 77%
    20:00 +27°C° 0 mm 2 mps 749 mmHg 79%
    21:00 +26°C° 0 mm 2 mps 749 mmHg 82%
    22:00 +25°C° 0 mm 2 mps 749 mmHg 85%
    23:00 +24°C° 0 mm 2 mps 749 mmHg 86%

    Tomorrow, 27 June, Thursday

    Time Temperature Precipitation Wind Pressure Humidity
    00:00 +24°C° 0 mm 2 mps 749 mmHg 87%
    01:00 +24°C° 0 mm 2 mps 749 mmHg 88%
    02:00 +23°C° 0 mm 2 mps 748 mmHg 89%
    03:00 +23°C° 0 mm 2 mps 748 mmHg 90%
    04:00 +22°C° 0 mm 1 mps 747 mmHg 91%
    05:00 +24°C° 0 mm 2 mps 747 mmHg 86%
    06:00 +26°C° 0 mm 2 mps 747 mmHg 81%
    07:00 +27°C° 0 mm 2 mps 747 mmHg 75%
    08:00 +29°C° 0 mm 2 mps 747 mmHg 69%
    09:00 +31°C° 0 mm 2 mps 747 mmHg 63%
    10:00 +34°C° 0 mm 2 mps 746 mmHg 57%
    11:00 +34°C° 0.3 mm 3 mps 746 mmHg 54%
    12:00 +35°C° 0.3 mm 4 mps 746 mmHg 50%
    13:00 +36°C° 0.3 mm 5 mps 745 mmHg 47%
    14:00 +34°C° 0.3 mm 5 mps 745 mmHg 52%
    15:00 +33°C° 0.3 mm 4 mps 744 mmHg 57%
    16:00 +32°C° 0.3 mm 4 mps 744 mmHg 62%
    17:00 +29°C° 0.1 mm 3 mps 744 mmHg 62%
    18:00 +26°C° 0.1 mm 3 mps 744 mmHg 63%
    19:00 +24°C° 0.1 mm 3 mps 744 mmHg 64%
    20:00 +21°C° 0 mm 2 mps 745 mmHg 63%
    21:00 +20°C° 0 mm 2 mps 745 mmHg 63%
    22:00 +18°C° 0 mm 2 mps 746 mmHg 63%
    23:00 +17°C° 0 mm 2 mps 746 mmHg 66%

    Day after tomorrow, 28 June, Friday

    Time Temperature Precipitation Wind Pressure Humidity
    00:00 +16°C° 0 mm 2 mps 746 mmHg 69%
    01:00 +16°C° 0 mm 2 mps 746 mmHg 72%
    02:00 +15°C° 0 mm 2 mps 746 mmHg 74%
    03:00 +15°C° 0 mm 2 mps 746 mmHg 76%
    04:00 +14°C° 0 mm 2 mps 746 mmHg 79%
    05:00 +16°C° 0 mm 2 mps 746 mmHg 74%
    06:00 +18°C° 0 mm 2 mps 747 mmHg 70%
    07:00 +20°C° 0 mm 3 mps 747 mmHg 65%
    08:00 +21°C° 0 mm 3 mps 747 mmHg 60%
    09:00 +22°C° 0 mm 3 mps 747 mmHg 54%
    10:00 +25°C° 0 mm 3 mps 747 mmHg 49%
    11:00 +25°C° 0 mm 3 mps 747 mmHg 48%
    12:00 +25°C° 0 mm 3 mps 747 mmHg 47%
    13:00 +25°C° 0 mm 3 mps 747 mmHg 47%
    14:00 +25°C° 0 mm 3 mps 747 mmHg 50%
    15:00 +24°C° 0 mm 2 mps 747 mmHg 53%
    16:00 +24°C° 0 mm 2 mps 747 mmHg 56%
    17:00 +23°C° 0 mm 2 mps 747 mmHg 61%
    18:00 +22°C° 0 mm 1 mps 747 mmHg 66%
    19:00 +20°C° 0 mm 1 mps 747 mmHg 71%
    20:00 +19°C° 0 mm 1 mps 747 mmHg 73%
    21:00 +18°C° 0 mm 1 mps 747 mmHg 74%
    22:00 +15°C° 0 mm 0 mps 747 mmHg 76%
    23:00 +15°C° 0 mm 0 mps 748 mmHg 76%

    29 June, Saturday

    Time Temperature Precipitation Wind Pressure Humidity
    00:00 +15°C° 0 mm 0 mps 748 mmHg 75%
    01:00 +15°C° 0 mm 0 mps 748 mmHg 74%
    02:00 +16°C° 0 mm 1 mps 748 mmHg 76%
    03:00 +15°C° 0 mm 1 mps 748 mmHg 78%
    04:00 +15°C° 0 mm 1 mps 748 mmHg 80%
    05:00 +16°C° 0 mm 2 mps 748 mmHg 71%
    06:00 +18°C° 0 mm 3 mps 748 mmHg 61%
    07:00 +19°C° 0 mm 3 mps 748 mmHg 52%
    08:00 +21°C° 0 mm 4 mps 748 mmHg 50%
    09:00 +22°C° 0 mm 4 mps 749 mmHg 47%
    10:00 +23°C° 0 mm 4 mps 749 mmHg 45%
    11:00 +23°C° 0 mm 4 mps 749 mmHg 45%
    12:00 +25°C° 0 mm 4 mps 749 mmHg 44%
    13:00 +25°C° 0 mm 4 mps 748 mmHg 44%
    14:00 +25°C° 0 mm 3 mps 748 mmHg 45%
    15:00 +25°C° 0 mm 3 mps 748 mmHg 47%
    16:00 +26°C° 0 mm 3 mps 748 mmHg 48%
    17:00 +24°C° 0 mm 3 mps 748 mmHg 55%
    18:00 +21°C° 0 mm 2 mps 748 mmHg 63%
    19:00 +19°C° 0 mm 2 mps 748 mmHg 71%
    20:00 +19°C° 0 mm 1 mps 749 mmHg 73%
    21:00 +18°C° 0 mm 1 mps 749 mmHg 75%
    22:00 +16°C° 0 mm 1 mps 749 mmHg 77%
    23:00 +15°C° 0 mm 1 mps 749 mmHg 78%

    30 June, Sunday

    Time Temperature Precipitation Wind Pressure Humidity
    00:00 +15°C° 0 mm 1 mps 749 mmHg 78%
    01:00 +15°C° 0 mm 1 mps 749 mmHg 79%
    02:00 +14°C° 0 mm 1 mps 749 mmHg 80%
    03:00 +14°C° 0 mm 1 mps 749 mmHg 81%
    04:00 +14°C° 0 mm 1 mps 749 mmHg 82%
    05:00 +16°C° 0 mm 1 mps 749 mmHg 76%
    06:00 +18°C° 0 mm 2 mps 749 mmHg 70%
    07:00 +20°C° 0 mm 2 mps 750 mmHg 64%
    08:00 +22°C° 0 mm 3 mps 750 mmHg 60%
    09:00 +24°C° 0 mm 3 mps 750 mmHg 56%
    10:00 +26°C° 0 mm 4 mps 750 mmHg 51%
    11:00 +27°C° 0 mm 3 mps 750 mmHg 51%
    12:00 +27°C° 0 mm 3 mps 749 mmHg 50%
    13:00 +28°C° 0 mm 3 mps 749 mmHg 49%
    14:00 +28°C° 0 mm 3 mps 749 mmHg 50%
    15:00 +28°C° 0 mm 3 mps 749 mmHg 52%
    16:00 +28°C° 0 mm 3 mps 748 mmHg 53%
    17:00 +26°C° 0 mm 3 mps 748 mmHg 60%
    18:00 +25°C° 0 mm 2 mps 748 mmHg 68%
    19:00 +23°C° 0 mm 2 mps 748 mmHg 75%
    20:00 +21°C° 0 mm 2 mps 748 mmHg 77%
    21:00 +20°C° 0 mm 2 mps 748 mmHg 78%
    22:00 +19°C° 0 mm 2 mps 748 mmHg 79%
    23:00 +19°C° 0 mm 1 mps 748 mmHg 81%

    1 July, Monday

    Time Temperature Precipitation Wind Pressure Humidity
    00:00 +19°C° 0 mm 1 mps 748 mmHg 83%
    01:00 +18°C° 0 mm 1 mps 748 mmHg 85%
    02:00 +18°C° 0 mm 1 mps 748 mmHg 85%
    03:00 +16°C° 0 mm 1 mps 748 mmHg 85%
    04:00 +16°C° 0 mm 1 mps 748 mmHg 86%
    05:00 +19°C° 0 mm 1 mps 748 mmHg 80%
    06:00 +21°C° 0 mm 1 mps 748 mmHg 73%
    07:00 +23°C° 0 mm 2 mps 748 mmHg 67%
    08:00 +25°C° 0 mm 2 mps 748 mmHg 62%
    09:00 +26°C° 0 mm 3 mps 748 mmHg 56%
    10:00 +28°C° 0 mm 3 mps 748 mmHg 50%
    11:00 +29°C° 0 mm 4 mps 747 mmHg 50%
    12:00 +29°C° 0 mm 4 mps 747 mmHg 49%
    13:00 +30°C° 0 mm 4 mps 747 mmHg 48%
    14:00 +30°C° 0 mm 4 mps 746 mmHg 50%
    15:00 +30°C° 0 mm 4 mps 746 mmHg 52%
    16:00 +30°C° 0 mm 4 mps 745 mmHg 53%
    17:00 +28°C° 0 mm 3 mps 745 mmHg 60%
    18:00 +27°C° 0 mm 3 mps 745 mmHg 67%
    19:00 +25°C° 0 mm 2 mps 744 mmHg 74%
    20:00 +24°C° 0 mm 2 mps 744 mmHg 77%
    21:00 +23°C° 0 mm 2 mps 744 mmHg 79%
    22:00 +22°C° 0 mm 1 mps 745 mmHg 81%
    23:00 +22°C° 0.1 mm 1 mps 744 mmHg 83%
    Show more